Location: Newark
(42.8481°N, 0.4872°E)
Time: 23:48:34
(UTC+00:00)

SR - Pass Details

Date: 31 October 2020
Orbit: 579 x 876 km, 66.7° (Epoch: 29 November)

Event Time Altitude Azimuth Distance (km) Brightness Sun altitude
Rises 10:19:25 0° 328° (NNW) 3,082 ? 29.8°
Reaches altitude 10° 10:21:41 10° 327° (NNW) 2,206 ? 30.0°
Maximum altitude 10:26:44 80° 241° (WSW) 779 ? 30.3°
Drops below altitude 10° 10:32:13 10° 155° (SSE) 2,387 ? 30.6°
Sets 10:34:44 0° 154° (SSE) 3,354 ? 30.8°
